Starlink 11714

operational
NORAD ID: 64134 Int'l Des: 2025-111 Owner: SPXS Country: US Constellation: starlink
LEOCIRCULAR

About Starlink 11714

Description loading...

Live Position

Loading 3D Globe...

Upcoming Passes

Altitude History

Altitude vs Time

uPlot chart will show altitude changes over time

Two-Line Element Set

1 64134U 25111M 25260.48771084 .00211927 00000-0 16105-2 0 9999
2 64134 42.9991 297.4321 0001783 302.5153 57.5542 15.70881309 19404
Epoch: Sep 17, 2025 • Age: 37 hours

Current Status

Altitude 356.8 km
Velocity 7.70 km/s
Sub-Earth Point 37.17°N, 24.81°W
Launch Date May 24, 2025
Age 0.3 years
Type internet

Technical Details

Classification Payload
Mass 960.00 kg
Dry Mass 910.00 kg
Total Mass 960.00 kg
Length 0.30 m
Diameter 4.10 m
Span 29.00 m
Shape Box + pan
Manufacturer SPXS
Bus Type Starlink V2MD
Phase Status In Orbit
Owner/State SPXS/US

Large Constellations

Loading constellations...